Time,TemperatureF,DewpointF,PressureIn,WindDirection,WindDirectionDegrees,WindSpeedMPH,WindSpeedGustMPH,Humidity,HourlyPrecipIn,Conditions,Clouds,dailyrainin,SoftwareType,DateUTC
2013-04-03 00:02:00,43.0,25.0,30.26,East,90,5.0,-999.0,48,-99.99,,,-99.99,,2013-04-03 05:02:00,
2013-04-03 00:12:00,43.0,25.0,30.26,East,90,5.0,-999.0,48,-99.99,,,-99.99,,2013-04-03 05:12:00,
2013-04-03 00:22:00,41.0,27.0,30.27,East,80,3.0,-999.0,56,-99.99,,,-99.99,,2013-04-03 05:22:00,
2013-04-03 00:32:00,41.0,27.0,30.27,East,80,3.0,-999.0,56,-99.99,,,-99.99,,2013-04-03 05:32:00,
2013-04-03 00:42:00,41.0,27.0,30.27,East,80,3.0,-999.0,56,-99.99,,,-99.99,,2013-04-03 05:42:00,
2013-04-03 00:52:00,39.0,28.0,30.28,North,0,0.0,-999.0,64,-99.99,,,-99.99,,2013-04-03 05:52:00,
2013-04-03 01:02:00,39.0,28.0,30.28,North,0,0.0,-999.0,64,-99.99,,,-99.99,,2013-04-03 06:02:00,
2013-04-03 01:12:00,39.0,28.0,30.28,North,0,0.0,-999.0,64,-99.99,,,-99.99,,2013-04-03 06:12:00,
2013-04-03 01:22:00,39.0,28.0,30.28,ENE,60,3.0,-999.0,64,-99.99,,,-99.99,,2013-04-03 06:22:00,
2013-04-03 01:32:00,39.0,28.0,30.28,ENE,60,3.0,-999.0,64,-99.99,,,-99.99,,2013-04-03 06:32:00,
2013-04-03 01:42:00,39.0,28.0,30.28,North,0,0.0,-999.0,64,-99.99,,,-99.99,,2013-04-03 06:42:00,
2013-04-03 01:52:00,39.0,27.0,30.28,ENE,60,3.0,-999.0,60,-99.99,,,-99.99,,2013-04-03 06:52:00,
2013-04-03 02:02:00,39.0,27.0,30.28,ENE,60,3.0,-999.0,60,-99.99,,,-99.99,,2013-04-03 07:02:00,
2013-04-03 02:12:00,39.0,27.0,30.28,ENE,60,3.0,-999.0,60,-99.99,,,-99.99,,2013-04-03 07:12:00,
2013-04-03 02:23:00,39.0,27.0,30.28,North,0,0.0,-999.0,60,-99.99,,,-99.99,,2013-04-03 07:23:00,
2013-04-03 02:32:00,37.0,27.0,30.28,North,0,0.0,-999.0,64,-99.99,,,-99.99,,2013-04-03 07:32:00,
2013-04-03 02:42:00,37.0,27.0,30.28,North,0,0.0,-999.0,64,-99.99,,,-99.99,,2013-04-03 07:42:00,
2013-04-03 02:53:00,37.0,27.0,30.29,North,0,0.0,-999.0,64,-99.99,,,-99.99,,2013-04-03 07:53:00,
2013-04-03 03:03:00,37.0,27.0,30.29,North,0,0.0,-999.0,64,-99.99,,,-99.99,,2013-04-03 08:03:00,
2013-04-03 03:12:00,37.0,27.0,30.29,North,0,0.0,-999.0,64,-99.99,,,-99.99,,2013-04-03 08:12:00,
2013-04-03 03:22:00,37.0,28.0,30.28,North,0,0.0,-999.0,69,-99.99,,,-99.99,,2013-04-03 08:22:00,
2013-04-03 03:32:00,36.0,28.0,30.28,North,0,0.0,-999.0,74,-99.99,,,-99.99,,2013-04-03 08:32:00,
2013-04-03 03:43:00,36.0,28.0,30.28,North,0,0.0,-999.0,74,-99.99,,,-99.99,,2013-04-03 08:43:00,
2013-04-03 03:52:00,36.0,28.0,30.28,NE,50,3.0,-999.0,74,-99.99,,,-99.99,,2013-04-03 08:52:00,
2013-04-03 04:02:00,36.0,28.0,30.28,NE,50,3.0,-999.0,74,-99.99,,,-99.99,,2013-04-03 09:02:00,
2013-04-03 04:12:00,36.0,28.0,30.28,NE,50,3.0,-999.0,74,-99.99,,,-99.99,,2013-04-03 09:12:00,
2013-04-03 04:22:00,34.0,27.0,30.28,ENE,60,3.0,-999.0,74,-99.99,,,-99.99,,2013-04-03 09:22:00,
2013-04-03 04:33:00,34.0,27.0,30.28,North,0,0.0,-999.0,74,-99.99,,,-99.99,,2013-04-03 09:33:00,
2013-04-03 04:43:00,34.0,27.0,30.28,North,0,0.0,-999.0,74,-99.99,,,-99.99,,2013-04-03 09:43:00,
2013-04-03 04:53:00,34.0,27.0,30.28,North,0,0.0,-999.0,74,-99.99,,,-99.99,,2013-04-03 09:53:00,
2013-04-03 05:03:00,34.0,27.0,30.28,North,0,0.0,-999.0,74,-99.99,,,-99.99,,2013-04-03 10:03:00,
2013-04-03 05:12:00,34.0,27.0,30.28,North,0,0.0,-999.0,74,-99.99,,,-99.99,,2013-04-03 10:12:00,
2013-04-03 05:22:00,34.0,27.0,30.29,North,0,0.0,-999.0,74,-99.99,,,-99.99,,2013-04-03 10:22:00,
2013-04-03 05:33:00,34.0,27.0,30.29,North,0,0.0,-999.0,74,-99.99,,,-99.99,,2013-04-03 10:33:00,
2013-04-03 05:43:00,34.0,27.0,30.29,North,0,0.0,-999.0,74,-99.99,,,-99.99,,2013-04-03 10:43:00,
2013-04-03 05:53:00,34.0,27.0,30.28,North,0,0.0,-999.0,74,-99.99,,,-99.99,,2013-04-03 10:53:00,
2013-04-03 06:02:00,34.0,27.0,30.28,North,0,0.0,-999.0,74,-99.99,,,-99.99,,2013-04-03 11:02:00,
2013-04-03 06:12:00,34.0,27.0,30.28,North,0,0.0,-999.0,74,-99.99,,,-99.99,,2013-04-03 11:12:00,
2013-04-03 06:22:00,32.0,28.0,30.28,NNE,30,3.0,-999.0,86,-99.99,,,-99.99,,2013-04-03 11:22:00,
2013-04-03 06:32:00,34.0,28.0,30.28,NNE,20,5.0,-999.0,80,-99.99,,,-99.99,,2013-04-03 11:32:00,
2013-04-03 06:42:00,34.0,28.0,30.28,NNE,20,3.0,-999.0,80,-99.99,,,-99.99,,2013-04-03 11:42:00,
2013-04-03 06:53:00,34.0,28.0,30.29,NNE,20,3.0,-999.0,80,-99.99,,,-99.99,,2013-04-03 11:53:00,
2013-04-03 07:02:00,34.0,28.0,30.29,NNE,20,3.0,-999.0,80,-99.99,,,-99.99,,2013-04-03 12:02:00,
2013-04-03 07:12:00,34.0,28.0,30.29,NNE,20,3.0,-999.0,80,-99.99,,,-99.99,,2013-04-03 12:12:00,
2013-04-03 07:22:00,34.0,27.0,30.30,North,0,0.0,-999.0,74,-99.99,,,-99.99,,2013-04-03 12:22:00,
2013-04-03 07:32:00,32.0,25.0,30.30,North,0,0.0,-999.0,74,-99.99,,,-99.99,,2013-04-03 12:32:00,
2013-04-03 07:42:00,32.0,25.0,30.30,North,0,0.0,-999.0,74,-99.99,,,-99.99,,2013-04-03 12:42:00,
2013-04-03 07:52:00,32.0,25.0,30.30,North,0,0.0,-999.0,74,-99.99,,,-99.99,,2013-04-03 12:52:00,
2013-04-03 08:02:00,32.0,25.0,30.30,North,0,0.0,-999.0,74,-99.99,,,-99.99,,2013-04-03 13:02:00,
2013-04-03 08:12:00,32.0,25.0,30.30,North,0,0.0,-999.0,74,-99.99,,,-99.99,,2013-04-03 13:12:00,
2013-04-03 08:22:00,34.0,28.0,30.32,North,0,0.0,-999.0,80,-99.99,,,-99.99,,2013-04-03 13:22:00,
2013-04-03 08:32:00,36.0,27.0,30.33,ENE,60,3.0,-999.0,69,-99.99,,,-99.99,,2013-04-03 13:32:00,
2013-04-03 08:42:00,36.0,27.0,30.33,ENE,60,3.0,-999.0,69,-99.99,,,-99.99,,2013-04-03 13:42:00,
2013-04-03 08:52:00,36.0,27.0,30.33,ENE,60,6.0,-999.0,69,-99.99,,,-99.99,,2013-04-03 13:52:00,
2013-04-03 09:02:00,36.0,27.0,30.33,ENE,60,6.0,-999.0,69,-99.99,,,-99.99,,2013-04-03 14:02:00,
2013-04-03 09:12:00,36.0,27.0,30.33,ENE,60,6.0,-999.0,69,-99.99,,,-99.99,,2013-04-03 14:12:00,
2013-04-03 09:22:00,37.0,27.0,30.33,East,80,7.0,-999.0,64,-99.99,,,-99.99,,2013-04-03 14:22:00,
2013-04-03 09:32:00,39.0,27.0,30.34,East,90,6.0,-999.0,60,-99.99,,,-99.99,,2013-04-03 14:32:00,
2013-04-03 09:43:00,39.0,27.0,30.34,East,90,6.0,-999.0,60,-99.99,,,-99.99,,2013-04-03 14:43:00,
2013-04-03 09:52:00,39.0,27.0,30.34,East,90,6.0,-999.0,60,-99.99,,,-99.99,,2013-04-03 14:52:00,
2013-04-03 10:02:00,39.0,27.0,30.34,East,90,6.0,-999.0,60,-99.99,,,-99.99,,2013-04-03 15:02:00,
2013-04-03 10:12:00,39.0,27.0,30.34,East,90,6.0,-999.0,60,-99.99,,,-99.99,,2013-04-03 15:12:00,
2013-04-03 10:23:00,39.0,25.0,30.34,East,90,8.0,-999.0,55,-99.99,,,-99.99,,2013-04-03 15:23:00,
2013-04-03 10:33:00,41.0,25.0,30.35,East,100,7.0,-999.0,52,-99.99,,,-99.99,,2013-04-03 15:33:00,
2013-04-03 10:43:00,41.0,25.0,30.35,East,100,7.0,-999.0,52,-99.99,,,-99.99,,2013-04-03 15:43:00,
2013-04-03 10:53:00,43.0,25.0,30.35,East,100,9.0,-999.0,48,-99.99,,,-99.99,,2013-04-03 15:53:00,
2013-04-03 11:03:00,43.0,25.0,30.35,East,100,9.0,-999.0,48,-99.99,,,-99.99,,2013-04-03 16:03:00,
2013-04-03 11:12:00,43.0,25.0,30.35,East,100,9.0,-999.0,48,-99.99,,,-99.99,,2013-04-03 16:12:00,
2013-04-03 11:23:00,43.0,23.0,30.36,ESE,120,10.0,-999.0,45,-99.99,,,-99.99,,2013-04-03 16:23:00,
2013-04-03 11:32:00,43.0,23.0,30.35,ESE,110,9.0,-999.0,45,-99.99,,,-99.99,,2013-04-03 16:32:00,
2013-04-03 11:44:00,43.0,23.0,30.35,ESE,110,9.0,-999.0,45,-99.99,,,-99.99,,2013-04-03 16:44:00,
2013-04-03 11:53:00,43.0,23.0,30.36,ESE,120,8.0,-999.0,45,-99.99,,,-99.99,,2013-04-03 16:53:00,
2013-04-03 12:03:00,43.0,23.0,30.36,ESE,120,8.0,-999.0,45,-99.99,,,-99.99,,2013-04-03 17:03:00,
2013-04-03 12:13:00,43.0,23.0,30.36,ESE,120,8.0,-999.0,45,-99.99,,,-99.99,,2013-04-03 17:13:00,
2013-04-03 12:22:00,45.0,23.0,30.35,SE,130,7.0,-999.0,42,-99.99,,,-99.99,,2013-04-03 17:22:00,
2013-04-03 12:33:00,43.0,21.0,30.34,SE,130,8.0,-999.0,41,-99.99,,,-99.99,,2013-04-03 17:33:00,
2013-04-03 12:46:00,43.0,21.0,30.34,SE,130,8.0,-999.0,41,-99.99,,,-99.99,,2013-04-03 17:46:00,
2013-04-03 12:54:00,43.0,21.0,30.34,SE,130,9.0,-999.0,41,-99.99,,,-99.99,,2013-04-03 17:54:00,
2013-04-03 13:02:00,43.0,21.0,30.34,SE,130,9.0,-999.0,41,-99.99,,,-99.99,,2013-04-03 18:02:00,
2013-04-03 13:13:00,43.0,21.0,30.34,SE,130,9.0,-999.0,41,-99.99,,,-99.99,,2013-04-03 18:13:00,
2013-04-03 13:22:00,45.0,21.0,30.33,SE,140,7.0,-999.0,39,-99.99,,,-99.99,,2013-04-03 18:22:00,
2013-04-03 13:33:00,45.0,21.0,30.33,SE,140,7.0,-999.0,39,-99.99,,,-99.99,,2013-04-03 18:33:00,
2013-04-03 13:43:00,45.0,21.0,30.33,SE,140,7.0,-999.0,39,-99.99,,,-99.99,,2013-04-03 18:43:00,
2013-04-03 13:52:00,45.0,21.0,30.33,SE,140,7.0,-999.0,39,-99.99,,,-99.99,,2013-04-03 18:52:00,
2013-04-03 14:02:00,45.0,21.0,30.33,SE,140,7.0,-999.0,39,-99.99,,,-99.99,,2013-04-03 19:02:00,
2013-04-03 14:22:00,43.0,21.0,30.32,SE,130,7.0,-999.0,41,-99.99,,,-99.99,,2013-04-03 19:22:00,
2013-04-03 14:32:00,43.0,21.0,30.31,SSE,150,7.0,-999.0,41,-99.99,,,-99.99,,2013-04-03 19:32:00,
2013-04-03 14:42:00,43.0,21.0,30.31,SSE,150,7.0,-999.0,41,-99.99,,,-99.99,,2013-04-03 19:42:00,
2013-04-03 14:52:00,43.0,21.0,30.31,SSE,150,7.0,-999.0,41,-99.99,,,-99.99,,2013-04-03 19:52:00,
2013-04-03 15:02:00,43.0,21.0,30.31,SSE,150,7.0,-999.0,41,-99.99,,,-99.99,,2013-04-03 20:02:00,
2013-04-03 15:12:00,43.0,21.0,30.31,SSE,150,7.0,-999.0,41,-99.99,,,-99.99,,2013-04-03 20:12:00,
2013-04-03 15:22:00,45.0,23.0,30.30,SSE,150,6.0,-999.0,42,-99.99,,,-99.99,,2013-04-03 20:22:00,
2013-04-03 15:33:00,45.0,27.0,30.30,South,180,9.0,-999.0,48,-99.99,,,-99.99,,2013-04-03 20:33:00,
2013-04-03 15:42:00,45.0,27.0,30.30,South,180,9.0,-999.0,48,-99.99,,,-99.99,,2013-04-03 20:42:00,
2013-04-03 15:53:00,43.0,30.0,30.29,SSE,160,13.0,-999.0,60,-99.99,,,-99.99,,2013-04-03 20:53:00,
2013-04-03 16:02:00,43.0,30.0,30.29,SSE,160,13.0,-999.0,60,-99.99,,,-99.99,,2013-04-03 21:02:00,
2013-04-03 16:12:00,43.0,30.0,30.29,SSE,160,13.0,-999.0,60,-99.99,,,-99.99,,2013-04-03 21:12:00,
2013-04-03 16:22:00,43.0,32.0,30.28,SE,140,13.0,-999.0,65,-99.99,,,-99.99,,2013-04-03 21:22:00,
2013-04-03 16:32:00,43.0,32.0,30.28,SE,140,12.0,-999.0,65,-99.99,,,-99.99,,2013-04-03 21:32:00,
2013-04-03 16:42:00,43.0,32.0,30.28,ESE,120,10.0,-999.0,65,-99.99,,,-99.99,,2013-04-03 21:42:00,
2013-04-03 16:52:00,43.0,30.0,30.28,SE,130,10.0,-999.0,60,-99.99,,,-99.99,,2013-04-03 21:52:00,
2013-04-03 17:02:00,43.0,30.0,30.28,SE,130,10.0,-999.0,60,-99.99,,,-99.99,,2013-04-03 22:02:00,
2013-04-03 17:12:00,43.0,30.0,30.28,SE,130,10.0,-999.0,60,-99.99,,,-99.99,,2013-04-03 22:12:00,
2013-04-03 17:22:00,43.0,30.0,30.27,ESE,120,9.0,-999.0,60,-99.99,,,-99.99,,2013-04-03 22:22:00,
2013-04-03 17:32:00,43.0,28.0,30.27,SE,130,10.0,-999.0,56,-99.99,,,-99.99,,2013-04-03 22:32:00,
2013-04-03 17:42:00,43.0,28.0,30.27,SE,130,9.0,-999.0,56,-99.99,,,-99.99,,2013-04-03 22:42:00,
2013-04-03 17:52:00,43.0,27.0,30.27,ESE,120,8.0,-999.0,52,-99.99,,,-99.99,,2013-04-03 22:52:00,
2013-04-03 18:02:00,43.0,27.0,30.27,ESE,120,8.0,-999.0,52,-99.99,,,-99.99,,2013-04-03 23:02:00,
2013-04-03 18:12:00,43.0,27.0,30.27,ESE,120,8.0,-999.0,52,-99.99,,,-99.99,,2013-04-03 23:12:00,
2013-04-03 18:22:00,43.0,27.0,30.26,SE,130,6.0,-999.0,52,-99.99,,,-99.99,,2013-04-03 23:22:00,
2013-04-03 18:32:00,43.0,27.0,30.26,SE,130,6.0,-999.0,52,-99.99,,,-99.99,,2013-04-03 23:32:00,
2013-04-03 18:43:00,43.0,27.0,30.26,SE,130,6.0,-999.0,52,-99.99,,,-99.99,,2013-04-03 23:43:00,
2013-04-03 18:54:00,43.0,27.0,30.26,ESE,120,5.0,-999.0,52,-99.99,,,-99.99,,2013-04-03 23:54:00,
2013-04-03 19:02:00,43.0,27.0,30.26,ESE,120,5.0,-999.0,52,-99.99,,,-99.99,,2013-04-04 00:02:00,
2013-04-03 19:12:00,43.0,27.0,30.26,ESE,120,5.0,-999.0,52,-99.99,,,-99.99,,2013-04-04 00:12:00,
2013-04-03 19:22:00,43.0,27.0,30.26,SE,130,5.0,-999.0,52,-99.99,,,-99.99,,2013-04-04 00:22:00,
2013-04-03 19:32:00,43.0,27.0,30.26,SE,130,5.0,-999.0,52,-99.99,,,-99.99,,2013-04-04 00:32:00,
2013-04-03 19:43:00,43.0,27.0,30.26,SE,130,5.0,-999.0,52,-99.99,,,-99.99,,2013-04-04 00:43:00,
2013-04-03 19:52:00,43.0,27.0,30.26,SE,130,5.0,-999.0,52,-99.99,,,-99.99,,2013-04-04 00:52:00,
2013-04-03 20:02:00,43.0,27.0,30.26,SE,130,5.0,-999.0,52,-99.99,,,-99.99,,2013-04-04 01:02:00,
2013-04-03 20:22:00,41.0,28.0,30.26,South,190,3.0,-999.0,60,-99.99,,,-99.99,,2013-04-04 01:22:00,
2013-04-03 20:32:00,41.0,28.0,30.26,South,190,3.0,-999.0,60,-99.99,,,-99.99,,2013-04-04 01:32:00,
2013-04-03 20:43:00,41.0,28.0,30.26,South,190,3.0,-999.0,60,-99.99,,,-99.99,,2013-04-04 01:43:00,
2013-04-03 20:52:00,41.0,28.0,30.26,SSW,200,5.0,-999.0,60,-99.99,,,-99.99,,2013-04-04 01:52:00,
2013-04-03 21:02:00,41.0,28.0,30.26,SSW,200,5.0,-999.0,60,-99.99,,,-99.99,,2013-04-04 02:02:00,
2013-04-03 21:12:00,41.0,28.0,30.26,SSW,200,5.0,-999.0,60,-99.99,,,-99.99,,2013-04-04 02:12:00,
2013-04-03 21:22:00,39.0,28.0,30.26,North,0,0.0,-999.0,64,-99.99,,,-99.99,,2013-04-04 02:22:00,
2013-04-03 21:32:00,39.0,28.0,30.26,North,0,0.0,-999.0,64,-99.99,,,-99.99,,2013-04-04 02:32:00,
2013-04-03 21:42:00,39.0,28.0,30.26,North,0,0.0,-999.0,64,-99.99,,,-99.99,,2013-04-04 02:42:00,
2013-04-03 21:52:00,39.0,28.0,30.26,North,0,0.0,-999.0,64,-99.99,,,-99.99,,2013-04-04 02:52:00,
2013-04-03 22:02:00,39.0,30.0,30.26,North,0,0.0,-999.0,69,-99.99,,,-99.99,,2013-04-04 03:02:00,
2013-04-03 22:12:00,39.0,30.0,30.26,North,0,0.0,-999.0,69,-99.99,,,-99.99,,2013-04-04 03:12:00,
2013-04-03 22:22:00,37.0,28.0,30.27,West,260,3.0,-999.0,69,-99.99,,,-99.99,,2013-04-04 03:22:00,
2013-04-03 22:33:00,36.0,28.0,30.27,West,280,5.0,-999.0,74,-99.99,,,-99.99,,2013-04-04 03:33:00,
2013-04-03 22:45:00,36.0,28.0,30.27,West,280,5.0,-999.0,74,-99.99,,,-99.99,,2013-04-04 03:45:00,
2013-04-03 22:53:00,36.0,28.0,30.27,West,280,3.0,-999.0,74,-99.99,,,-99.99,,2013-04-04 03:53:00,
2013-04-03 23:03:00,36.0,28.0,30.27,West,280,3.0,-999.0,74,-99.99,,,-99.99,,2013-04-04 04:03:00,
2013-04-03 23:12:00,36.0,28.0,30.27,West,280,3.0,-999.0,74,-99.99,,,-99.99,,2013-04-04 04:12:00,
2013-04-03 23:22:00,37.0,30.0,30.27,North,0,0.0,-999.0,74,-99.99,,,-99.99,,2013-04-04 04:22:00,
2013-04-03 23:33:00,39.0,32.0,30.26,WNW,300,3.0,-999.0,75,-99.99,,,-99.99,,2013-04-04 04:33:00,
2013-04-03 23:43:00,39.0,32.0,30.26,WNW,300,3.0,-999.0,75,-99.99,,,-99.99,,2013-04-04 04:43:00,
2013-04-03 23:53:00,39.0,32.0,30.26,WNW,300,3.0,-999.0,75,-99.99,,,-99.99,,2013-04-04 04:53:00,